User: anonymous   Login
Location: Unspecified
(0.0000°N, 0.0000°E)
Time: 07:45:10
(UTC+00:00)
Language:

Tiros 5 - Orbit

View from above orbital plane
View from above orbital plane
View from above satellite
View from above satellite

Ground track
Ground track

The orbit data is extracted from the following two-line orbital elements,

1   309U 62025A   18112.92866387 -.00000081 +00000-0 +22404-4 0  9995
2   309 058.0907 315.4318 0197932 137.2207 224.4419 14.56736715947710
Epoch (UTC): 22 April 2018 22:17:16
Eccentricity: 0.0197932
inclination: 58.0907°
perigee height: 563 km
apogee height: 844 km
right ascension of ascending node: 315.4318°
argument of perigee: 137.2207°
revolutions per day: 14.56736715
mean anomaly at epoch: 224.4419°
orbit number at epoch: 94771

The dashed part of the orbit path shows where the satellite is in the earth's shadow,  

DLR